[[{"header":{"parameterUnit":"m.s-1","parameterCategory":1,"la1":30.2991,"la2":30.254,"lo1":-89.0895,"lo2":-89.0444,"dy":0.0017,"dx":0.0017,"nx":28,"ny":28,"refTime":"2025-02-07T03:00:00:Z","depth":0,"parameterNumber":2,"parameterNumberName":"U-component_of_WINDS"},"data":[0,0,0,0,0,0,0,0,0,0,0,0,0,0,0,0,0,0,0,0,0,0,0,0,0,0,0,0,0,0,0,0,0,0,0,0,0,0,0,0,0,0,0,0,0,0,0,0,0,0,0,0,0,0,0,0,0,0,-0.1781,-0.1781,0,-0.1799,-0.1799,-0.1799,-0.183,-0.1831,-0.1832,-0.1832,-0.185,-0.185,-0.185,0,0,0,0,0,0,0,0,0,0,0,0,0,-0.1773,-0.1773,-0.1781,-0.1781,-0.1781,-0.1798,-0.1799,-0.1799,-0.183,-0.1831,-0.1832,-0.1832,-0.185,-0.185,-0.185,0,0,0,0,0,0,0,0,0,0,0,0,0,-0.1782,-0.1773,-0.1781,-0.1799,-0.1801,-0.1798,-0.1799,-0.1799,-0.183,-0.1831,-0.1832,-0.1833,-0.185,-0.185,-0.185,-0.1831,0,0,-0.1849,-0.1849,0,0,0,0,0,0,0,0,-0.1782,-0.1783,-0.1796,-0.1798,-0.18,-0.1813,-0.1803,-0.181,-0.183,-0.1819,-0.1832,-0.1833,-0.1837,-0.1838,-0.1839,-0.1832,-0.1833,-0.1849,-0.1849,-0.1849,-0.1849,0,0,0,0,0,0,0,-0.1781,-0.1782,-0.1788,-0.1796,-0.1798,-0.1806,-0.1808,-0.1804,-0.1823,-0.182,-0.1822,-0.1824,-0.1838,-0.1839,-0.184,-0.1833,-0.1849,-0.1849,-0.1849,-0.1849,-0.1809,-0.1808,0,0,0,0,0,0,-0.1778,-0.1781,-0.1787,-0.1788,-0.1793,-0.1805,-0.1808,-0.1808,-0.1823,-0.1826,-0.1823,-0.1825,-0.1839,-0.184,-0.1841,-0.1818,-0.1849,-0.1849,-0.1849,-0.181,-0.1809,-0.1808,0,0,0,0,0,0,-0.1778,-0.1778,-0.1787,-0.1785,-0.1787,-0.1805,-0.1804,-0.1808,-0.1809,-0.1825,-0.1829,-0.1821,-0.184,-0.1841,-0.1833,-0.1819,-0.1849,-0.1849,-0.1811,-0.181,-0.1808,-0.1774,0,0,0,0,0,0,-0.1777,-0.1778,-0.1771,-0.1785,-0.1787,-0.1778,-0.1804,-0.1808,-0.1809,-0.1812,-0.1824,-0.1827,-0.1841,-0.1833,-0.1833,-0.182,-0.1849,-0.1813,-0.1811,-0.1809,-0.1776,-0.1772,-0.1767,0,0,0,0,0,-0.1777,-0.1761,-0.1771,-0.1771,-0.1779,-0.1778,-0.1779,-0.1795,-0.1808,-0.1801,-0.1811,-0.1827,-0.1821,-0.1832,-0.1832,-0.1819,-0.1814,-0.1811,-0.1809,-0.1778,-0.1772,-0.1767,0,0,0,0,0,0,-0.1745,-0.1763,-0.1774,-0.1762,-0.1768,-0.1783,-0.1775,-0.1788,-0.1791,-0.1793,-0.1813,-0.1816,-0.1805,-0.1811,-0.1823,-0.1801,-0.182,-0.1817,-0.1796,-0.1791,-0.1786,-0.1784,-0.1849,0,0,0,0,0,-0.1737,-0.1734,-0.175,-0.1738,-0.1741,-0.1757,-0.1757,-0.1769,-0.1776,-0.1779,-0.1788,-0.1794,-0.1794,-0.1793,-0.1794,-0.1778,-0.178,-0.1769,-0.1764,-0.1761,-0.1758,-0.1749,-0.1743,-0.1801,-0.1801,-0.1801,0,0,-0.1719,-0.1729,-0.1726,-0.1732,-0.1738,-0.1734,-0.1759,-0.1755,-0.1752,-0.1778,-0.177,-0.1778,-0.1786,-0.1773,-0.1768,-0.1778,-0.1743,-0.1758,-0.1755,-0.1754,-0.1746,-0.174,-0.1735,-0.1799,-0.1799,-0.18,0,0,-0.1685,-0.1693,-0.1683,-0.1688,-0.1697,-0.1708,-0.1706,-0.1718,-0.1724,-0.1717,-0.1736,-0.1733,-0.1732,-0.1737,-0.1739,-0.1706,-0.172,-0.1706,-0.1681,-0.1672,-0.1667,-0.1663,-0.165,-0.1645,-0.1703,-0.1703,-0.1703,0,-0.1663,-0.1658,-0.1676,-0.167,-0.1672,-0.1695,-0.1684,-0.1689,-0.1697,-0.1697,-0.1709,-0.1707,-0.1715,-0.1703,-0.1694,-0.1696,-0.1693,-0.1703,-0.1667,-0.1663,-0.1659,-0.1647,-0.1642,-0.1701,-0.1701,-0.1702,-0.1702,0,-0.1629,-0.1625,-0.1616,-0.1623,-0.1624,-0.1616,-0.1632,-0.1631,-0.1642,-0.1652,-0.1644,-0.1653,-0.1655,-0.1654,-0.1665,-0.1643,-0.1649,-0.1663,-0.1683,-0.1652,-0.164,-0.1635,-0.1698,-0.1699,-0.17,-0.17,0,0,-0.1575,-0.1592,-0.1588,-0.159,-0.1601,-0.1599,-0.1592,-0.1594,-0.1591,-0.1596,-0.159,-0.1588,-0.1601,-0.1603,-0.1616,-0.1608,-0.1579,-0.1623,-0.1624,-0.1613,-0.1553,-0.1541,-0.1535,-0.1589,-0.1588,-0.1588,-0.1552,0,-0.1542,-0.153,-0.1546,-0.153,-0.1526,-0.1548,-0.1542,-0.1547,-0.1556,-0.1554,-0.1564,-0.1561,-0.158,-0.1581,-0.1574,-0.1584,-0.1567,-0.1587,-0.1582,-0.1581,-0.1577,-0.1529,-0.1516,-0.1482,-0.1547,-0.1547,-0.1546,0,-0.1502,-0.1504,-0.1488,-0.1499,-0.1498,-0.1491,-0.1494,-0.1492,-0.1499,-0.1506,-0.1508,-0.1522,-0.1515,-0.1535,-0.1525,-0.1538,-0.1537,-0.1541,-0.154,-0.1539,-0.1561,-0.1525,-0.1472,-0.1466,-0.154,-0.154,-0.1541,0,-0.1462,-0.1461,-0.1451,-0.1453,-0.1466,-0.146,-0.1466,-0.1473,-0.1473,-0.1475,-0.1475,-0.1477,-0.1477,-0.1478,-0.1492,-0.1506,-0.1479,-0.1501,-0.1484,-0.1483,-0.1476,-0.1476,-0.142,-0.1478,-0.1478,-0.1478,-0.1478,0,-0.1422,-0.1411,-0.1433,-0.1426,-0.1414,-0.1432,-0.1419,-0.1427,-0.1433,-0.1428,-0.1448,-0.1443,-0.1463,-0.1459,-0.1471,-0.146,-0.146,-0.1465,-0.1467,-0.1462,-0.1461,-0.146,-0.1462,-0.1477,-0.1477,-0.1477,-0.1478,0,-0.1375,-0.1389,-0.1379,-0.1392,-0.1395,-0.1385,-0.1396,-0.139,-0.14,-0.1393,-0.1393,-0.1408,-0.1405,-0.142,-0.142,-0.1428,-0.141,-0.1418,-0.1407,-0.1409,-0.139,-0.1391,-0.133,-0.1323,-0.1387,-0.1387,-0.1386,0,-0.1348,-0.134,-0.1351,-0.1349,-0.1353,-0.135,-0.1349,-0.1367,-0.1366,-0.1372,-0.1365,-0.1364,-0.1363,-0.1358,-0.1369,-0.1368,-0.1375,-0.1354,-0.1375,-0.1369,-0.1372,-0.1372,-0.137,-0.1349,-0.1348,-0.1347,-0.1347,0,-0.1298,-0.1305,-0.1304,-0.1305,-0.1303,-0.1305,-0.1308,-0.1305,-0.1324,-0.1322,-0.1319,-0.1318,-0.1318,-0.1316,-0.1317,-0.1323,-0.1337,-0.134,-0.1336,-0.1329,-0.1323,-0.1324,-0.1393,-0.1341,-0.1342,-0.1342,-0.1343,-0.1343,-0.1259,-0.1252,-0.1258,-0.1256,-0.126,-0.1262,-0.1256,-0.1266,-0.1263,-0.1264,-0.1275,-0.1269,-0.1275,-0.1279,-0.1283,-0.1278,-0.1288,-0.1282,-0.1281,-0.1278,-0.1274,-0.1325,-0.1279,-0.1279,-0.1279,-0.128,-0.128,0,-0.1208,-0.1213,-0.1211,-0.1214,-0.1212,-0.1226,-0.123,-0.1227,-0.1222,-0.1226,-0.1225,-0.1221,-0.1219,-0.123,-0.1229,-0.1223,-0.123,-0.1222,-0.1222,-0.1222,-0.1266,-0.1269,-0.1217,-0.1217,-0.1217,-0.1217,-0.1217,-0.1217,-0.1181,-0.1169,-0.1177,-0.1167,-0.1173,-0.1167,-0.1168,-0.117,-0.1173,-0.1167,-0.1166,-0.1173,-0.1179,-0.1179,-0.1177,-0.1181,-0.1179,-0.1168,-0.1173,-0.1214,-0.122,-0.1225,-0.1228,-0.1168,-0.1168,-0.113,-0.1129,-0.1129]},{"header":{"parameterUnit":"m.s-1","parameterCategory":1,"la1":30.2991,"la2":30.254,"lo1":-89.0895,"lo2":-89.0444,"dy":0.0017,"dx":0.0017,"nx":28,"ny":28,"refTime":"2025-02-07T03:00:00:Z","depth":0,"parameterNumber":3,"parameterNumberName":"V-component_of_WINDS"},"data":[0,0,0,0,0,0,0,0,0,0,0,0,0,0,0,0,0,0,0,0,0,0,0,0,0,0,0,0,0,0,0,0,0,0,0,0,0,0,0,0,0,0,0,0,0,0,0,0,0,0,0,0,0,0,0,0,0,0,3.4965,3.4966,0,3.5066,3.5067,3.5068,3.5078,3.5077,3.5076,3.5075,3.5178,3.5182,3.5185,0,0,0,0,0,0,0,0,0,0,0,0,0,3.4781,3.4784,3.4965,3.4966,3.4968,3.5066,3.5067,3.5069,3.5078,3.5077,3.5076,3.5074,3.5177,3.5181,3.5186,0,0,0,0,0,0,0,0,0,0,0,0,0,3.4869,3.4785,3.4965,3.4984,3.4987,3.5066,3.5067,3.5069,3.5078,3.5077,3.5075,3.5074,3.5175,3.5181,3.5186,3.5253,0,0,3.5203,3.5206,0,0,0,0,0,0,0,0,3.4864,3.4876,3.498,3.4983,3.4986,3.5058,3.504,3.5131,3.5079,3.5044,3.5075,3.5073,3.5139,3.5148,3.517,3.5257,3.5262,3.5204,3.5207,3.521,3.5211,0,0,0,0,0,0,0,3.4858,3.4872,3.5005,3.4981,3.4985,3.4988,3.4999,3.5057,3.5099,3.5047,3.5048,3.5059,3.5141,3.5165,3.5173,3.5263,3.5204,3.5209,3.5212,3.5214,3.5413,3.5415,0,0,0,0,0,0,3.4848,3.4867,3.5002,3.5008,3.492,3.4993,3.5005,3.5036,3.5098,3.5106,3.5061,3.5059,3.5156,3.5166,3.5176,3.526,3.521,3.5215,3.5218,3.5411,3.5413,3.5415,0,0,0,0,0,0,3.4844,3.486,3.4998,3.4938,3.4955,3.4997,3.5033,3.5039,3.5063,3.5109,3.5117,3.5078,3.5155,3.5168,3.5234,3.5264,3.5217,3.5222,3.5409,3.5412,3.5414,3.5427,0,0,0,0,0,0,3.4839,3.4859,3.4884,3.4938,3.4959,3.5054,3.5035,3.5042,3.5073,3.5073,3.5127,3.5135,3.5155,3.5226,3.524,3.5271,3.5227,3.5406,3.541,3.5414,3.5424,3.543,3.5435,0,0,0,0,0,3.4832,3.4883,3.4885,3.4902,3.4991,3.5055,3.5067,3.509,3.5075,3.5102,3.5131,3.5133,3.5258,3.5232,3.5248,3.5281,3.5405,3.5409,3.5413,3.5422,3.5429,3.5435,0,0,0,0,0,0,3.4831,3.489,3.4894,3.4963,3.5004,3.5057,3.5091,3.5096,3.5142,3.5139,3.5165,3.5177,3.5243,3.5268,3.5239,3.535,3.533,3.5338,3.5331,3.5338,3.5344,3.5337,3.5231,0,0,0,0,0,3.4838,3.4886,3.4935,3.4992,3.5012,3.5048,3.5077,3.5091,3.5134,3.5151,3.5186,3.5228,3.5277,3.5309,3.5356,3.5428,3.5441,3.5459,3.5464,3.5468,3.5475,3.5517,3.5526,3.543,3.543,3.543,0,0,3.4855,3.4893,3.4921,3.4993,3.5026,3.5075,3.5062,3.5114,3.5151,3.5159,3.5224,3.5251,3.53,3.5369,3.5402,3.5393,3.5504,3.5474,3.5477,3.5481,3.5523,3.5532,3.554,3.5433,3.5432,3.5432,0,0,3.4911,3.4943,3.4996,3.503,3.5081,3.5105,3.5117,3.5169,3.5188,3.5253,3.5261,3.5305,3.5389,3.5424,3.5453,3.5524,3.5528,3.5538,3.5567,3.5608,3.5616,3.5623,3.565,3.5659,3.5545,3.5545,3.5545,0,3.4925,3.4999,3.5021,3.5074,3.5106,3.5116,3.517,3.5202,3.5266,3.5288,3.5277,3.5383,3.5417,3.5496,3.5513,3.5536,3.5552,3.5533,3.5613,3.562,3.5627,3.5653,3.5663,3.5546,3.5546,3.5546,3.5546,0,3.5015,3.5066,3.5102,3.5165,3.52,3.5253,3.5285,3.5318,3.5329,3.5354,3.5422,3.5462,3.5519,3.5539,3.5549,3.562,3.5614,3.5607,3.5588,3.5637,3.5662,3.5672,3.5548,3.5547,3.5547,3.5547,0,0,3.5072,3.5148,3.5161,3.5191,3.5248,3.5289,3.5342,3.5399,3.5428,3.5472,3.5519,3.559,3.5585,3.5618,3.5633,3.5668,3.5725,3.5658,3.566,3.5671,3.5808,3.5814,3.5825,3.5727,3.5729,3.5731,3.5805,0,3.5136,3.5232,3.5255,3.5338,3.5387,3.5398,3.5445,3.5486,3.5511,3.5557,3.5584,3.5635,3.5624,3.5644,3.568,3.571,3.5753,3.5705,3.5772,3.5774,3.5762,3.5838,3.5844,3.5912,3.5814,3.5816,3.5817,0,3.5223,3.5271,3.5359,3.5412,3.5434,3.5476,3.553,3.5573,3.562,3.5636,3.5674,3.5685,3.5743,3.5719,3.58,3.5767,3.5796,3.5815,3.5818,3.5827,3.58,3.5851,3.5934,3.5945,3.5833,3.5832,3.583,0,3.5259,3.5345,3.5409,3.5434,3.5497,3.5527,3.5555,3.56,3.5633,3.5681,3.5703,3.5756,3.5786,3.5827,3.5854,3.5834,3.5933,3.5911,3.5949,3.5949,3.5971,3.5969,3.6062,3.5986,3.5986,3.5985,3.5985,0,3.5329,3.5383,3.5427,3.5466,3.5528,3.5554,3.5614,3.5642,3.5682,3.5729,3.574,3.5783,3.5815,3.5862,3.5883,3.5948,3.596,3.5976,3.5981,3.5976,3.5974,3.5996,3.5993,3.5988,3.5988,3.5987,3.5987,0,3.538,3.5411,3.5483,3.5537,3.5552,3.5596,3.5643,3.5682,3.5708,3.5766,3.5781,3.5821,3.5878,3.5908,3.5979,3.5993,3.6066,3.6068,3.6051,3.6053,3.6091,3.6087,3.6202,3.6219,3.613,3.6131,3.6131,0,3.5424,3.5466,3.5526,3.5558,3.5587,3.5638,3.5672,3.5699,3.5735,3.5793,3.5826,3.5883,3.5931,3.6022,3.6057,3.6112,3.6116,3.6153,3.6125,3.6119,3.612,3.6118,3.6123,3.6158,3.6159,3.616,3.616,0,3.5499,3.5513,3.5562,3.5617,3.5658,3.5703,3.5747,3.5772,3.5807,3.5846,3.5905,3.5942,3.6015,3.6073,3.6131,3.616,3.6167,3.6169,3.6181,3.6177,3.6166,3.6175,3.6067,3.6166,3.6166,3.6165,3.6165,3.6165,3.555,3.5589,3.5637,3.5692,3.5729,3.577,3.5811,3.5842,3.5891,3.5954,3.5966,3.6029,3.6077,3.6155,3.6186,3.6236,3.6229,3.6245,3.625,3.6254,3.6257,3.6157,3.6246,3.6246,3.6246,3.6246,3.6246,0,3.5628,3.566,3.571,3.5772,3.5816,3.5818,3.5868,3.5904,3.5959,3.6003,3.605,3.6119,3.6175,3.6216,3.6274,3.6306,3.6311,3.632,3.6319,3.6326,3.6259,3.6244,3.6316,3.6316,3.6316,3.6316,3.6316,3.6316,3.5673,3.574,3.576,3.5845,3.5877,3.5939,3.5967,3.6006,3.6042,3.6118,3.6165,3.6191,3.6234,3.6296,3.6348,3.6359,3.638,3.639,3.6401,3.6338,3.6331,3.6324,3.631,3.6394,3.6394,3.6465,3.6465,3.6466]}]]